Home   Weather   Querétaro   Past weeks

Flag for Mexico Past Weather in Querétaro, Querétaro, Mexico — Yesterday and Last 2 Weeks

Now
72 °F

Partly sunny.


Feels Like: 76 °F
Forecast: N/A
Wind: 17 mph from Northeast

Location: Queretaro - Qro.

Current Time: Sep 29, 2016 at 6:57:48 PM

Latest Report: Sep 29, 2016 at 5:45 PM


Visibility: 7 mi

Pressure: 30.34 "Hg (24.58 "Hg at 1817m altitude)

Humidity: 61%

Dew Point: 57 °F

Location of QuerétaroLocation

Past Weather in Querétaro — Graph

°F

Querétaro Temperature Yesterday

Maximum temperature yesterday: 72 °F (at 3:45 PM)
Minimum temperature yesterday: 59 °F (at 2:45 AM)
Average temperature yesterday: 64 °F

High & Low Weather Summary for the Past Weeks

 TemperatureHumidityPressure
High81 °F (Sep 18, 4:45 PM)100% (Sep 15, 5:45 AM)30.45 "Hg (Sep 15, 5:45 AM)
Low50 °F (Sep 15, 5:45 AM)34% (Sep 15, 4:45 PM)30.17 "Hg (Sep 16, 5:45 PM)
Average64 °F77%30.30 "Hg
* Reported Sep 14 5:45 PM — Sep 29 5:45 PM, Querétaro, Weather by CustomWeather, © 2016

Note: Actual official high and low records may vary slightly from our data, if they occured in-between our weather recording intervals... More about our weather records

Advertising

Querétaro Weather History for the Previous 24 Hours

Scroll right to see more
 ConditionsComfort  
Time TempWeatherWind HumidityBarometerVisibility
5:45 PM
Thu, Sep 29
72 °FPartly sunny.17 mph61%30.34 "Hg7 mi
4:45 PM72 °FPartly sunny.8 mph61%30.35 "Hg7 mi
2:45 PM70 °FMostly cloudy.12 mph69%30.39 "Hg7 mi
1:45 PM68 °FMostly cloudy.14 mph73%30.41 "Hg12 mi
12:45 PM70 °FMostly cloudy.7 mph64%30.43 "Hg12 mi
11:45 AM68 °FMostly cloudy.9 mph69%30.45 "Hg12 mi
9:45 AM64 °FPartly sunny.9 mph78%30.44 "Hg10 mi
8:45 AM63 °FMostly cloudy.9 mph88%30.42 "Hg10 mi
7:45 AM59 °FMostly cloudy.3 mph94%30.41 "Hg8 mi
6:45 AM57 °FMostly cloudy.7 mph100%30.39 "Hg6 mi
5:45 AM57 °FMostly cloudy.8 mph100%30.37 "Hg6 mi
4:45 AM59 °FPartly cloudy.7 mph94%30.36 "Hg7 mi
4:16 AM59 °FPartly cloudy.7 mph94%30.38 "Hg7 mi
2:45 AM61 °FPartly cloudy.6 mph94%30.38 "Hg7 mi
1:45 AM63 °FOvercast.7 mph88%30.39 "Hg7 mi
11:45 PM
Wed, Sep 28
63 °FOvercast.7 mph83%30.41 "Hg7 mi
10:45 PM63 °FOvercast.9 mph83%30.40 "Hg7 mi
9:45 PM63 °FOvercast.7 mph88%30.38 "Hg7 mi
8:45 PM63 °FPartly cloudy.6 mph83%30.34 "Hg7 mi
7:45 PM64 °FPassing clouds.12 mph78%30.32 "Hg7 mi
Weather by CustomWeather, © 2016

See weather overviewHow to use our weather pages